Theta_e
317 322 325 326 326 328 328 328 328 328 328 327 327 327 328 329 330 330 330 329 328 328 328 329 331 332 331 331 330 331 331 331 332 332 332 332 331 331 331 332 332 331 330 330 330 330 330 330 330 329 329 329 329 329 328 327 327 325 323 322 321 320 320 318 317 316 314 314 314 314 315 315 315 314 314 312 311 308 305 304 302 300 300 301 303
312 317 321 324 325 327 328 328 328 328 328 328 328 328 328 328 329 330 330 329 329 329 328 329 331 332 330 330 330 331 332 331 332 332 332 331 331 330 330 331 331 330 330 329 329 330 330 330 330 329 329 329 329 329 328 328 327 326 323 321 321 320 319 318 317 316 314 313 313 313 314 314 314 313 312 311 311 309 306 305 303 301 301 301 302
308 312 316 320 323 325 327 328 328 328 328 328 329 329 328 328 329 329 330 330 329 329 329 331 331 331 330 330 331 331 332 331 332 332 332 331 330 330 330 330 330 330 330 330 330 330 330 330 330 329 328 328 329 328 327 327 327 326 324 322 321 319 318 317 317 316 315 313 312 312 313 313 313 313 312 311 311 309 307 305 304 303 301 301 301
307 309 312 316 321 323 325 327 328 328 327 327 328 328 328 328 328 329 329 329 329 330 330 331 331 331 330 330 331 331 332 332 332 332 332 331 330 330 330 329 330 330 329 330 330 330 330 330 329 329 329 328 328 327 326 327 326 326 326 325 323 320 319 318 317 317 316 314 313 312 312 313 313 313 313 312 311 310 309 307 305 304 303 302 302
307 308 311 314 318 320 322 324 326 327 328 327 327 327 328 328 328 328 328 327 328 329 330 330 330 330 330 330 330 330 331 332 332 331 331 330 330 330 330 329 329 330 329 329 330 330 330 330 330 330 330 329 328 328 327 326 326 326 327 326 326 324 322 321 318 317 316 314 313 312 311 311 311 312 313 312 311 310 309 307 306 305 303 302 303
306 307 309 311 314 316 318 320 322 324 327 328 327 326 327 328 328 328 327 327 327 328 328 329 329 329 330 330 330 330 330 331 331 331 331 330 330 331 330 329 329 329 329 330 330 331 331 330 330 330 331 330 330 329 328 327 327 327 327 327 327 327 326 324 321 319 317 315 313 312 311 311 311 310 311 311 310 310 309 308 307 306 305 304 303
305 305 306 308 310 313 315 316 318 321 323 326 327 326 326 327 328 328 327 327 327 327 328 328 329 329 329 329 329 330 330 330 330 330 331 330 330 331 330 330 330 329 330 330 331 331 330 330 330 330 330 330 330 330 330 329 327 327 328 327 327 327 326 325 323 320 317 315 313 312 311 311 310 310 310 310 309 309 308 308 307 308 307 306 305
304 305 305 306 307 309 311 314 316 318 321 323 326 327 326 327 327 327 327 328 328 328 328 329 329 329 328 329 329 330 329 329 329 330 331 331 330 331 330 330 330 330 330 331 330 330 329 328 329 329 329 329 328 329 329 329 328 327 327 327 327 326 326 325 323 321 320 318 316 313 311 311 310 309 309 308 308 308 308 307 308 309 309 308 307
304 304 305 305 305 306 308 311 314 316 319 321 324 326 326 326 326 326 326 327 328 328 328 329 329 329 329 328 328 329 329 328 329 330 331 331 330 330 330 330 330 330 330 330 330 329 329 329 329 329 329 328 328 328 328 328 327 327 327 327 327 326 325 324 323 322 322 320 319 315 312 310 310 309 308 308 309 309 309 308 308 310 309 309 308
304 304 305 305 305 305 306 309 312 314 317 319 322 324 326 326 326 326 326 326 327 327 328 329 329 329 329 329 328 328 328 328 330 330 330 330 330 330 330 330 330 330 329 329 329 329 328 329 329 329 329 328 328 328 328 327 326 326 325 325 326 325 324 323 323 323 322 320 320 317 312 311 310 309 309 310 310 309 309 308 309 309 308 308 309
304 304 304 304 305 305 305 307 310 312 315 317 320 323 325 326 326 325 325 325 326 327 327 328 329 329 329 328 327 327 328 329 330 330 330 330 329 329 329 329 329 329 329 329 329 329 329 329 329 329 328 328 329 329 328 328 327 326 325 324 324 324 323 323 322 322 321 320 320 318 314 312 312 310 309 309 309 309 309 308 308 308 307 306 308
303 304 304 304 304 304 305 305 307 310 313 316 319 321 324 326 326 325 325 326 326 327 327 328 328 328 328 328 328 327 328 329 329 329 330 329 328 328 328 328 328 328 329 329 329 329 329 329 328 327 327 327 327 327 328 328 327 326 325 324 324 323 323 323 322 321 321 320 320 318 316 313 311 310 309 309 309 309 308 308 308 308 307 307 307
303 303 303 304 304 304 304 305 305 307 310 314 318 321 323 325 326 325 325 326 327 327 327 328 328 328 327 327 327 327 327 328 328 328 329 328 327 327 328 327 327 327 328 329 328 329 329 327 326 326 326 326 325 326 326 326 325 324 323 322 322 321 321 321 321 320 320 320 319 318 316 312 309 309 309 309 309 309 309 309 308 308 308 308 308
302 303 303 304 304 304 304 304 305 306 308 310 315 318 321 324 325 325 325 325 326 326 327 326 326 326 326 327 327 326 327 327 327 327 328 327 326 326 327 327 326 327 327 327 327 327 326 325 325 325 325 325 325 326 325 324 322 320 319 318 317 316 316 317 318 319 318 317 316 315 313 311 309 310 310 310 310 310 310 310 310 310 310 310 311
302 302 303 303 303 304 304 304 304 305 306 308 310 313 315 319 323 324 325 325 324 325 325 324 324 324 324 325 325 325 326 327 326 326 327 326 326 326 326 326 326 326 325 324 324 324 324 324 324 324 325 325 325 325 325 323 321 318 316 315 314 314 315 315 315 315 315 314 313 313 313 313 313 314 315 315 315 315 315 314 313 313 314 314 315
301 302 302 303 303 303 303 304 304 304 304 305 307 307 308 311 313 316 319 322 322 321 321 321 321 321 322 322 322 323 325 326 325 325 326 326 325 325 325 324 324 323 322 322 322 322 322 323 323 324 324 325 325 325 324 323 320 317 315 314 314 315 315 315 315 314 314 313 313 313 314 314 315 315 315 315 316 315 316 316 315 315 315 315 315
299 301 302 302 303 303 303 303 303 303 302 303 303 304 304 304 306 307 310 313 315 315 315 316 316 316 317 317 318 321 323 323 323 324 324 324 324 323 322 322 320 320 320 320 320 321 321 322 323 323 323 323 323 322 321 321 318 315 314 313 313 313 312 312 312 310 310 310 310 308 308 308 308 309 309 310 311 310 312 313 312 311 311 310 311
298 300 302 302 303 304 303 303 303 303 302 302 302 302 302 302 302 303 303 303 305 307 309 310 310 310 310 311 314 318 320 320 320 321 321 321 322 322 320 319 318 317 318 318 318 319 319 319 320 320 320 320 319 317 316 317 316 315 314 313 312 310 309 308 308 307 308 309 308 306 306 306 306 307 307 307 308 307 307 308 307 306 306 306 307
297 300 302 303 303 304 304 303 303 303 302 302 301 301 302 301 301 301 301 300 300 301 303 305 306 306 307 308 310 313 316 316 317 318 317 318 319 320 319 318 316 314 314 313 313 314 315 316 317 318 318 317 315 313 313 314 314 314 313 312 311 308 306 306 307 308 309 309 307 306 307 306 306 306 306 305 305 304 304 304 304 304 304 304 304
296 299 303 304 303 303 304 303 303 303 303 302 302 301 301 301 301 301 300 300 300 300 301 302 303 304 305 306 307 308 309 311 312 313 314 315 316 317 317 317 315 312 310 309 309 309 310 313 315 316 317 316 314 313 313 313 314 313 312 312 310 305 303 303 305 305 306 305 304 304 304 303 303 303 303 302 302 302 302 302 302 302 302 301 301
296 298 301 303 303 302 303 303 303 303 303 302 302 302 301 301 302 302 301 300 300 300 300 300 300 301 302 304 304 304 305 306 307 309 311 312 313 314 314 314 313 311 308 307 306 306 305 306 308 310 313 315 314 313 313 312 313 312 311 310 307 303 302 303 304 304 304 303 303 303 302 302 302 302 302 301 301 301 301 301 301 301 301 300 300
297 297 299 301 302 302 302 303 303 302 302 302 302 302 302 302 301 302 302 302 301 300 299 299 299 300 300 301 302 302 303 304 304 305 307 308 308 310 310 309 308 309 307 305 304 303 302 301 301 302 305 307 307 307 307 307 307 307 306 306 304 303 303 303 303 303 303 303 302 302 302 302 301 301 301 301 301 300 300 300 300 300 299 299 299
298 297 297 299 301 301 302 302 302 302 302 302 302 301 301 301 301 301 302 302 302 301 300 299 298 299 299 300 300 301 301 302 302 303 304 304 305 306 306 305 305 306 306 303 301 300 300 300 300 300 301 302 302 302 303 303 304 304 304 304 304 304 304 304 303 303 302 302 302 301 301 300 300 300 300 299 299 299 299 299 298 298 298 298 297
299 297 296 297 299 300 301 301 302 301 301 301 301 301 300 300 300 300 300 300 300 300 300 299 299 298 298 299 300 301 301 301 301 301 302 303 304 304 304 304 304 305 304 302 301 301 301 301 302 302 302 303 303 303 303 303 304 304 304 304 304 303 303 303 302 302 301 301 300 300 299 298 298 298 298 297 297 297 297 297 297 297 297 297 297
299 297 296 296 297 299 300 301 301 301 301 300 300 300 300 300 300 300 300 299 299 299 299 299 298 297 298 298 298 299 300 300 301 301 301 301 301 302 303 303 304 304 304 302 302 302 302 302 302 303 304 304 304 304 304 304 304 304 303 303 303 302 302 302 301 301 300 299 299 298 297 297 297 296 296 296 296 296 296 296 296 296 296 297 298
299 298 297 296 296 297 299 300 300 300 300 300 300 299 299 299 298 298 298 298 298 298 297 297 297 297 297 297 297 297 298 298 298 299 300 300 300 301 301 301 302 303 303 302 302 302 302 302 303 303 303 303 303 303 303 303 303 302 302 302 302 301 301 300 300 299 299 298 297 297 296 296 296 295 295 295 296 296 296 295 296 296 296 296 297
299 298 297 297 296 296 297 298 299 299 299 300 300 299 299 299 298 298 298 297 297 297 296 297 297 297 297 297 297 297 297 297 297 297 298 298 299 300 300 301 302 302 302 301 301 302 302 302 302 302 302 302 302 301 301 301 301 301 301 301 300 300 299 299 299 298 297 297 296 296 295 295 295 295 295 295 295 295 295 295 295 295 296 296 297
298 298 298 298 297 296 296 296 297 297 297 298 298 298 298 299 299 299 298 298 298 297 296 296 295 295 295 296 296 297 296 296 296 296 297 297 298 299 300 301 302 302 301 301 301 301 301 301 301 301 301 301 300 300 300 300 299 299 299 299 298 298 298 297 297 296 296 295 295 295 295 295 294 295 295 294 294 294 294 294 295 295 295 296 296
297 298 298 298 298 297 296 296 296 296 296 296 296 296 296 297 297 298 298 298 298 298 298 297 296 296 295 295 295 296 295 295 295 296 296 296 297 297 298 299 300 301 301 301 301 301 300 300 300 300 300 299 299 298 298 298 297 297 297 297 296 296 296 296 296 295 295 295 295 294 294 294 294 294 294 294 293 293 293 294 294 295 295 295 295
297 297 297 298 298 297 297 296 296 296 296 296 296 296 296 296 296 296 296 296 297 297 298 297 297 297 297 297 296 296 296 295 295 295 296 296 297 297 297 297 298 299 300 301 301 300 300 299 299 299 298 298 298 297 297 296 296 296 295 295 295 295 295 295 295 294 294 294 294 294 294 293 293 293 293 293 293 293 293 293 294 294 294 294 294
297 297 297 297 297 297 297 296 296 296 296 296 296 296 296 296 296 296 296 296 296 296 297 297 297 297 297 297 297 297 296 296 296 296 296 297 298 298 298 298 298 299 300 300 300 299 299 298 298 297 297 297 297 296 296 296 295 295 295 295 295 294 294 294 294 293 293 293 293 293 293 293 293 292 292 292 292 292 292 292 293 293 293 294 294
297 296 297 297 297 297 297 297 296 296 296 296 296 296 296 296 296 296 296 296 296 296 296 297 297 297 297 297 297 297 297 297 297 297 298 298 299 299 299 299 299 299 299 300 299 298 298 298 297 297 297 296 296 296 295 295 295 295 295 294 294 293 293 293 292 292 293 292 292 292 292 292 292 292 292 292 292 292 292 292 292 292 293 293 293
297 296 297 297 297 297 297 297 297 296 296 296 296 296 296 296 295 295 296 296 296 296 296 297 297 297 297 297 297 297 298 298 297 298 298 298 298 298 298 299 298 298 299 299 298 297 297 297 296 296 296 296 295 295 295 295 294 294 294 293 293 292 292 292 292 292 292 291 291 291 291 291 291 291 291 292 292 292 292 292 292 292 292 292 292
297 296 297 297 297 297 297 297 297 297 296 296 296 296 296 296 295 295 296 296 296 296 296 296 297 297 297 297 297 297 297 297 297 297 297 297 298 298 298 298 298 298 299 299 298 297 296 296 295 295 295 295 294 294 294 294 294 293 293 292 292 292 291 291 291 291 291 291 291 291 291 291 291 291 291 291 291 291 291 291 291 292 292 292 292
297 296 296 297 297 297 297 297 297 297 297 296 296 296 296 295 295 295 295 295 295 295 295 296 296 296 296 296 296 297 297 297 297 297 297 297 297 298 298 298 297 297 297 297 296 296 295 295 294 294 294 294 294 294 294 293 293 292 292 291 291 291 291 291 291 291 291 291 291 290 291 291 291 291 291 291 291 291 291 291 291 291 291 291 291
297 296 297 297 297 296 296 296 296 296 297 296 296 296 296 296 295 295 295 295 295 295 295 295 295 295 295 296 295 296 296 296 296 297 297 297 297 297 297 297 296 296 295 295 295 294 294 294 294 294 294 294 293 293 293 292 292 291 291 291 290 290 290 290 290 290 290 290 290 290 290 290 290 290 290 290 290 290 290 290 290 290 291 291 291
297 297 297 297 297 297 296 296 296 296 296 296 296 296 296 296 296 296 295 295 295 294 294 294 294 295 295 295 295 295 295 295 295 295 296 296 296 296 296 296 296 295 294 294 294 294 294 293 293 293 293 293 293 292 292 291 291 290 290 290 290 290 290 290 290 290 290 290 290 290 290 290 290 290 290 290 290 290 290 290 290 290 290 291 291
298 297 297 298 297 297 297 297 296 296 296 296 296 296 296 296 296 295 295 295 294 294 294 294 294 294 294 294 294 294 294 294 294 294 294 294 295 295 295 295 294 294 294 293 293 293 293 293 293 293 293 293 292 291 291 290 290 290 290 290 290 290 290 290 290 290 290 290 290 290 290 290 290 290 290 289 290 290 290 290 290 290 290 291 291
298 298 298 298 297 296 296 296 297 297 296 296 296 296 296 296 296 295 295 294 294 294 294 294 294 294 294 294 294 293 293 293 293 293 293 293 294 294 294 293 293 293 293 293 293 293 293 293 293 293 292 291 291 290 290 290 290 290 290 290 290 290 290 290 290 290 290 290 290 290 290 290 290 289 289 289 289 289 290 290 290 290 290 291 291
297 297 298 298 297 296 296 296 297 297 296 296 296 296 295 295 295 295 295 294 294 294 294 294 294 294 293 293 293 293 293 293 292 292 292 293 292 292 292 292 292 292 292 292 293 292 292 292 292 292 291 291 290 290 290 290 290 290 290 290 290 290 290 290 290 290 290 290 290 290 289 289 289 289 289 289 289 289 289 290 290 290 290 290 290
297 297 297 298 297 296 296 296 296 296 296 296 296 295 295 295 295 295 294 294 294 294 294 294 294 293 292 292 292 292 292 292 292 292 292 292 292 291 291 292 292 292 292 292 292 292 292 292 291 291 291 291 290 290 290 290 290 290 290 290 290 290 290 290 290 290 290 290 290 289 289 289 289 289 289 289 289 289 289 289 290 289 290 290 290
297 297 297 297 297 296 296 296 296 296 296 296 296 296 295 295 295 295 294 294 294 294 294 294 293 292 292 292 292 291 291 291 291 291 291 291 291 291 291 291 291 292 292 292 292 292 292 292 291 291 291 291 291 291 291 290 290 290 290 290 290 290 290 290 290 290 290 290 290 289 289 289 289 289 289 289 289 289 289 290 290 289 290 290 290
297 297 297 296 296 296 296 296 296 296 296 296 296 296 296 295 295 295 294 294 294 294 293 293 293 293 292 292 291 291 291 291 291 291 291 291 291 291 290 291 291 291 292 292 292 292 292 292 292 292 292 291 291 291 291 291 291 290 290 290 290 290 290 290 289 289 290 290 289 290 290 290 290 290 290 289 289 290 290 290 290 290 289 290 290
297 297 297 297 296 296 296 296 296 296 296 296 296 296 296 295 295 295 294 294 294 294 294 293 293 292 292 292 292 292 291 291 291 291 291 291 291 291 291 290 291 291 292 292 292 292 292 292 292 292 291 291 291 291 290 290 290 290 290 290 290 290 290 290 289 289 289 289 290 290 290 290 290 290 289 289 289 289 289 289 289 289 289 289 290
296 296 297 297 296 296 296 296 296 296 295 295 295 296 295 295 295 295 294 294 293 293 294 294 293 292 292 292 292 292 292 292 291 291 291 291 291 291 291 290 290 291 291 291 291 291 291 292 292 291 291 291 291 290 290 290 289 289 290 289 289 289 289 289 289 289 289 289 290 290 290 290 290 289 289 289 288 288 288 288 288 288 289 289 290
296 295 295 295 294 294 295 296 296 296 295 295 295 295 295 295 295 295 294 294 294 294 294 294 293 293 292 292 292 292 292 292 292 292 291 291 291 291 291 291 291 291 291 291 291 291 291 291 291 291 291 291 291 291 290 290 289 289 289 290 290 289 289 289 289 289 289 289 290 290 290 290 289 289 288 288 288 288 288 288 288 288 288 289 290
296 294 294 294 293 293 294 295 296 296 296 295 295 295 295 295 295 295 294 294 294 294 294 294 293 293 293 292 292 292 292 292 292 292 291 291 291 290 290 290 290 291 291 291 291 291 291 291 291 291 291 291 290 290 290 290 289 289 289 290 290 289 289 289 289 290 290 290 290 290 289 289 289 288 288 287 288 288 288 288 288 288 288 289 289
295 295 294 293 293 293 293 295 296 296 296 296 295 295 295 295 295 295 294 294 293 294 294 294 293 293 293 293 292 292 292 292 292 292 292 291 291 290 290 290 290 290 290 290 290 290 290 290 290 290 290 290 289 289 289 289 288 288 289 290 289 289 289 289 290 289 290 290 289 289 289 289 288 288 287 287 287 288 288 288 288 288 288 288 289
294 295 294 293 293 293 293 293 295 295 296 296 295 295 295 295 295 295 294 293 293 293 294 293 293 293 293 293 292 292 292 292 292 292 292 291 291 290 290 290 289 289 289 289 289 289 289 290 290 289 289 288 288 288 287 287 287 288 288 289 289 289 289 289 289 289 289 289 289 288 288 288 287 287 287 287 287 286 285 286 287 287 287 288 289
292 293 294 293 293 293 293 293 294 295 295 295 295 295 295 295 295 294 294 293 293 293 293 293 293 293 293 293 293 292 292 292 292 292 292 291 291 290 290 290 289 288 288 288 288 288 288 289 289 288 288 288 287 287 287 287 287 287 288 288 288 288 289 289 289 289 289 289 288 288 288 287 287 287 287 286 284 283 283 284 285 286 286 287 289
290 292 293 293 293 293 293 293 293 294 295 295 295 295 295 295 295 294 294 293 293 293 293 293 294 293 293 293 293 293 293 292 292 292 292 292 291 291 290 290 289 288 288 288 288 288 288 288 288 288 288 287 287 287 287 287 287 287 287 288 288 288 288 289 289 289 289 288 288 287 287 287 287 287 285 283 282 283 283 283 284 285 286 288 289
Wind_Speed
21 18 16 15 15 15 16 17 19 19 19 20 22 23 25 27 26 24 22 22 25 26 24 21 21 22 23 24 23 22 23 24 23 22 23 24 24 23 23 23 23 23 22 21 20 20 20 20 22 24 24 23 22 21 20 20 21 22 22 23 25 23 20 18 12 6 9 15 16 16 18 18 17 16 17 17 16 16 16 16 17 18 18 18 18
25 21 17 16 17 16 14 13 13 15 16 19 21 22 25 28 26 23 23 23 25 26 25 23 22 22 22 22 21 20 22 23 23 22 22 22 23 22 22 22 22 22 21 21 20 20 19 21 23 24 24 23 22 20 20 21 21 22 23 24 25 25 22 20 16 10 9 13 15 16 17 19 19 18 17 18 17 17 18 18 19 19 19 19 20
27 25 20 17 17 17 15 13 11 11 12 15 18 21 24 26 25 24 24 24 25 26 25 24 23 22 22 21 20 19 19 20 21 21 21 22 22 22 21 21 21 21 21 20 21 21 21 22 23 23 23 22 21 19 19 20 21 22 23 24 25 25 24 22 19 15 12 13 14 16 18 19 20 20 18 18 18 18 19 19 19 20 21 21 22
28 26 23 20 17 17 16 15 13 12 12 12 16 19 22 23 24 24 25 24 24 25 25 24 23 22 23 22 21 18 18 18 19 20 21 22 23 22 20 21 21 20 20 20 21 22 22 22 22 21 21 20 19 18 18 19 21 22 22 24 25 25 25 25 23 19 15 14 15 16 18 19 20 20 20 20 20 20 20 20 20 21 22 22 22
28 27 25 22 19 18 18 17 16 15 14 14 15 18 22 23 24 24 24 23 24 25 25 24 22 23 23 22 21 19 18 17 18 20 21 22 23 22 21 23 24 21 20 22 22 22 22 21 21 20 19 19 19 18 18 19 20 21 22 22 23 25 25 26 26 22 18 17 16 16 16 18 19 20 21 21 21 21 22 22 22 23 23 24 24
28 27 26 25 23 22 21 20 18 17 16 17 16 18 22 23 24 24 22 20 22 23 22 22 22 22 23 22 21 20 18 17 18 20 20 21 22 22 23 24 24 22 22 23 23 22 22 21 20 19 20 20 20 20 20 20 20 21 22 22 22 24 24 25 25 24 22 21 18 16 16 18 18 19 21 22 23 23 23 23 23 23 24 25 26
27 26 26 26 25 24 23 21 20 18 17 18 17 18 20 22 23 23 22 20 20 20 20 21 21 20 21 22 20 19 18 18 20 21 20 20 21 22 22 23 23 23 22 22 21 21 22 22 21 20 20 20 21 21 21 21 22 22 22 22 21 22 23 23 23 23 23 23 21 18 17 17 18 19 20 21 21 22 23 23 23 24 24 26 26
27 26 25 25 26 26 24 22 20 19 18 17 18 18 19 22 22 22 22 21 20 20 21 22 21 20 21 22 21 19 19 20 23 23 21 19 20 20 21 21 21 21 20 19 19 20 20 20 19 19 19 19 19 20 21 23 23 23 22 21 21 22 23 22 22 22 22 22 21 19 17 16 17 17 17 17 19 23 24 24 24 24 25 25 26
27 27 26 25 25 26 25 23 20 19 18 17 18 19 20 22 22 22 22 22 22 21 21 21 22 22 23 23 22 21 21 22 25 25 22 20 20 20 20 20 19 19 19 18 18 17 17 17 17 17 17 18 17 18 20 21 21 22 22 21 21 22 23 23 22 22 22 20 19 17 15 15 17 18 18 20 23 25 25 25 26 27 25 25 26
28 28 28 27 26 26 26 25 23 20 18 17 17 20 21 21 22 23 23 23 23 22 20 22 23 24 24 24 24 22 21 23 25 24 22 22 21 20 20 19 18 18 18 18 17 17 17 16 16 16 16 16 16 17 16 15 16 17 16 18 21 22 22 22 22 23 22 22 21 18 15 17 20 22 23 24 25 24 23 24 27 27 23 22 24
30 29 29 29 28 27 27 27 25 22 20 18 17 19 22 22 21 22 23 23 24 22 21 22 24 25 25 24 24 23 23 24 24 23 23 23 22 21 20 19 18 18 17 17 17 17 17 16 15 15 15 15 15 15 13 11 13 13 12 14 18 20 20 20 22 24 23 23 22 20 19 22 25 25 26 24 23 23 22 22 23 22 19 18 19
31 31 31 31 30 29 28 28 27 25 21 19 17 17 20 23 22 22 23 24 24 23 22 22 24 24 24 24 24 25 25 24 23 23 23 23 22 22 20 18 18 18 17 17 16 17 17 16 15 14 14 14 13 12 10 9 10 11 12 14 17 19 19 21 23 24 23 23 23 23 24 25 25 24 24 23 21 21 20 20 20 19 17 17 17
32 32 33 33 33 31 29 29 29 27 24 20 17 17 19 23 24 23 24 25 25 25 24 24 25 25 25 24 25 26 25 23 23 23 23 22 21 21 20 19 17 17 17 17 17 17 17 16 15 14 13 12 11 11 10 10 10 11 11 12 13 14 17 21 24 24 22 22 24 26 26 24 21 20 19 19 20 19 18 18 18 17 17 18 18
34 34 34 34 34 33 31 30 30 29 27 23 17 15 15 21 27 26 25 26 27 27 26 26 27 27 27 26 26 25 24 23 22 23 22 21 20 20 20 19 18 17 17 17 17 16 16 16 15 14 13 12 12 12 13 13 13 12 11 9 7 6 7 12 18 22 22 21 22 23 22 19 17 15 13 13 14 15 16 16 15 14 13 12 11
34 34 35 35 35 34 32 31 30 30 29 26 20 17 13 9 18 23 25 26 27 28 28 28 28 28 27 26 26 26 24 23 23 23 22 21 20 20 20 19 18 18 17 17 17 16 16 16 16 15 14 13 13 13 14 15 14 13 12 12 12 11 9 6 3 8 11 13 13 13 12 11 10 9 7 7 8 8 9 8 7 7 5 3 3
33 34 35 35 35 34 33 31 30 30 30 28 25 23 21 14 3 8 17 22 24 24 25 25 25 25 25 25 25 25 23 23 23 22 22 22 20 20 19 19 19 18 17 17 17 17 17 17 17 16 15 15 14 14 14 15 15 15 15 15 15 14 13 11 10 10 10 11 11 11 12 12 11 10 9 8 7 7 7 7 6 5 3 4 7
32 33 33 34 34 34 33 31 30 29 29 29 28 27 25 22 17 8 4 10 16 19 20 21 21 21 21 22 23 24 23 22 23 22 22 23 22 21 21 20 19 18 17 16 16 17 17 17 17 17 16 15 15 15 15 16 17 17 18 17 16 14 15 15 14 15 15 15 15 14 14 13 11 10 9 7 5 4 3 4 3 3 3 4 6
31 31 31 32 34 34 33 32 30 30 29 28 27 28 28 27 24 19 14 10 7 10 15 17 17 16 16 17 18 21 22 21 22 23 23 23 24 23 23 22 20 19 18 17 17 17 17 16 15 16 16 16 16 17 17 16 18 19 19 18 17 16 17 17 16 16 14 12 12 12 11 9 8 7 6 4 3 3 3 4 4 3 2 2 1
30 29 28 29 31 33 34 33 31 31 30 28 27 27 28 29 28 26 24 21 17 12 12 15 16 15 14 14 14 16 19 20 21 23 24 24 24 24 24 23 22 21 21 21 20 19 18 17 16 15 16 17 17 17 17 16 17 19 19 19 19 19 18 16 15 15 13 12 11 11 10 8 7 7 7 6 6 6 7 7 6 5 5 5 3
29 27 25 26 27 30 32 33 32 31 31 31 30 28 28 29 30 31 31 28 25 22 19 19 20 19 17 16 15 15 16 17 18 20 22 23 23 24 25 25 24 24 23 23 22 22 21 20 19 17 17 18 18 18 17 16 17 18 18 18 20 21 19 18 17 16 16 16 15 14 14 13 12 11 11 10 10 10 10 9 8 7 7 6 4
29 27 25 24 24 26 29 31 32 31 31 33 34 33 31 31 32 34 34 34 31 28 26 24 25 26 25 22 20 19 18 17 15 15 19 21 22 24 24 25 26 26 25 24 23 23 22 22 22 20 20 20 21 21 20 18 17 17 16 16 19 20 20 20 20 19 19 19 18 17 16 15 14 13 12 11 12 11 10 9 9 8 7 6 4
29 28 26 24 23 24 25 27 29 30 30 32 34 35 34 33 33 33 35 36 35 34 30 26 25 30 32 29 27 26 24 21 18 15 15 18 20 22 24 25 26 26 26 25 24 23 23 22 22 20 20 21 21 21 20 19 17 17 16 16 18 19 20 20 20 19 19 19 18 17 15 13 12 11 11 10 10 9 8 8 7 7 7 7 6
27 29 27 25 23 22 22 23 24 26 27 29 31 33 33 34 34 33 33 34 34 34 34 30 26 29 33 32 31 30 28 26 23 20 18 18 19 20 22 23 23 25 26 26 25 24 23 22 21 20 20 20 19 18 18 18 18 18 18 18 18 18 18 19 18 17 17 16 15 15 14 12 11 10 9 9 8 8 8 8 8 8 8 8 7
25 27 28 26 23 22 21 20 21 22 22 24 26 28 29 30 31 32 31 32 31 30 30 30 29 28 30 30 30 30 29 27 25 23 21 20 20 19 19 19 19 21 24 25 24 23 23 22 20 19 18 18 17 17 18 19 21 21 20 19 18 17 18 18 17 16 16 16 15 15 14 12 11 10 9 9 8 7 7 7 8 8 8 6 4
23 24 26 26 24 23 21 20 20 19 19 20 22 24 25 26 27 27 27 28 29 27 27 28 28 29 29 29 30 30 28 26 25 24 22 21 20 19 18 17 16 18 20 22 22 22 22 21 19 18 17 17 17 19 21 21 22 22 21 20 18 17 16 17 16 16 17 16 15 14 13 11 10 9 8 8 7 7 7 8 7 8 7 6 5
22 21 23 25 24 23 22 22 21 19 18 18 19 19 21 22 24 24 23 23 23 24 24 25 26 27 28 28 28 28 27 26 25 24 22 20 20 19 18 18 16 17 20 22 22 23 23 21 20 21 21 19 19 21 23 21 20 20 20 19 17 16 15 15 15 15 16 16 14 13 12 10 9 7 7 7 7 9 10 10 9 10 10 8 7
23 20 20 22 23 22 22 22 23 23 21 20 19 18 17 17 18 19 19 19 19 19 20 21 22 23 23 23 23 23 23 23 23 22 21 19 18 16 16 16 16 17 20 22 22 22 22 21 21 21 21 20 20 21 22 21 20 20 20 18 16 15 14 13 13 14 15 14 13 12 11 9 7 7 8 9 10 12 12 11 12 13 12 9 8
22 21 18 18 20 20 20 20 21 23 24 24 23 22 20 18 17 16 15 14 14 15 15 16 16 16 16 17 18 19 19 19 19 17 17 16 15 13 12 14 16 18 21 22 22 22 21 21 20 20 20 21 21 21 21 21 20 20 19 18 16 15 14 13 13 14 13 12 12 11 10 9 10 10 11 12 13 13 12 12 13 14 12 12 13
19 19 18 17 16 16 17 17 18 19 21 23 24 23 22 21 20 18 16 13 12 12 12 11 11 10 11 12 13 14 14 14 14 13 12 12 12 11 11 12 13 15 17 17 17 19 20 20 20 20 20 21 21 20 20 20 20 20 19 17 16 15 14 13 14 14 13 12 12 12 12 12 13 13 13 13 14 14 13 13 13 13 14 15 17
16 17 17 16 15 13 13 14 15 16 17 19 21 21 21 20 19 19 18 16 14 13 12 10 8 7 7 8 8 8 8 8 8 7 7 7 7 7 7 7 8 11 13 14 15 18 20 21 20 20 20 20 20 20 20 19 19 19 17 16 15 14 14 14 15 15 13 13 14 14 14 14 14 14 14 15 16 16 15 15 14 14 14 15 15
15 15 15 15 15 13 11 11 12 13 14 15 17 18 18 18 18 17 17 16 15 15 13 11 9 7 6 5 5 5 4 4 4 3 3 3 3 3 6 9 11 14 16 17 18 20 21 21 21 20 19 19 18 18 17 16 17 17 16 16 16 15 15 16 16 14 14 15 15 15 14 14 14 14 15 16 16 16 16 17 16 16 15 14 14
13 13 14 14 15 16 13 10 9 10 12 13 14 15 16 17 17 16 16 16 16 16 16 15 12 9 7 4 3 3 3 3 2 1 3 4 5 8 12 15 16 17 16 16 18 19 19 20 20 18 17 17 16 15 14 15 15 15 15 17 17 17 17 17 16 14 15 15 15 15 15 14 14 14 15 15 15 16 16 16 17 17 16 15 14
12 11 12 13 14 16 16 13 9 9 10 11 12 13 14 15 15 14 14 15 16 16 17 17 16 15 12 9 6 4 5 5 4 5 7 10 12 15 17 17 16 15 12 11 15 17 17 17 17 15 14 14 14 14 14 15 15 15 16 17 18 18 17 16 15 14 15 16 16 16 16 15 15 15 15 15 15 15 16 16 15 15 15 15 13
12 10 10 11 12 14 15 14 11 9 8 8 10 11 12 12 12 11 12 12 13 14 15 16 16 16 16 14 11 9 8 8 9 10 11 13 14 15 15 14 13 10 8 9 13 15 14 14 15 14 14 14 15 15 15 15 15 16 18 18 18 18 17 15 15 16 17 17 18 18 18 17 17 17 16 16 16 16 16 16 15 14 13 13 13
11 10 10 10 10 10 12 13 12 10 8 7 8 9 9 10 10 11 12 12 12 12 12 12 13 13 14 14 13 12 11 11 12 12 12 12 11 10 9 10 11 10 10 11 12 13 13 14 15 15 15 15 15 15 14 15 16 18 18 18 18 17 16 16 16 17 18 18 18 18 17 17 17 17 17 17 17 17 16 15 14 13 12 12 12
11 11 11 11 9 8 8 9 10 10 8 7 6 6 7 8 9 11 12 12 12 11 10 9 10 10 10 11 11 10 10 9 9 8 8 7 5 2 4 7 10 11 11 12 12 13 13 14 15 15 15 15 14 14 15 17 18 18 18 17 18 17 17 17 18 18 18 18 17 16 16 16 16 16 16 16 16 16 15 14 13 12 12 13 13
10 10 11 11 10 8 6 6 7 8 8 7 6 4 4 6 7 8 9 11 12 11 10 7 7 8 9 9 9 8 7 6 5 4 3 2 2 1 3 7 9 10 10 11 12 13 14 14 14 14 14 14 15 16 18 19 18 18 18 18 18 19 19 18 18 17 17 16 15 14 14 15 15 15 15 15 14 13 12 12 13 12 13 13 14
11 11 11 11 11 9 7 4 4 5 6 6 6 4 4 4 5 6 7 8 9 10 10 8 7 7 8 8 7 7 6 5 4 4 4 2 1 3 6 8 9 10 11 12 13 13 14 13 12 13 14 16 17 18 19 19 19 19 19 20 19 19 18 17 16 16 15 14 13 13 12 13 14 14 14 13 13 13 12 12 13 13 13 12 12
12 12 11 11 11 11 9 5 3 3 4 5 5 5 4 4 4 4 5 6 7 8 9 9 8 8 8 8 8 8 8 7 6 6 5 4 4 6 8 9 9 11 12 13 13 12 12 12 13 15 17 18 18 18 18 19 19 19 19 19 19 17 16 15 14 13 12 12 12 12 12 12 13 13 13 12 13 14 14 13 13 12 12 11 11
14 13 12 11 11 11 10 6 4 4 4 4 5 5 5 5 4 3 4 5 6 6 7 8 8 10 11 10 10 10 10 7 5 5 5 7 8 8 8 8 9 11 12 12 12 11 12 14 16 17 18 18 18 18 18 18 18 18 17 17 16 15 14 13 12 12 11 12 12 12 12 12 12 11 12 12 13 13 14 14 13 12 10 10 10
14 14 12 10 10 10 9 6 5 6 5 4 4 5 5 5 4 4 3 3 4 4 5 6 8 11 13 11 10 10 9 5 3 4 6 8 10 9 8 7 8 10 12 12 12 13 14 16 17 17 17 17 16 16 16 16 15 15 14 14 13 13 13 12 12 11 11 11 12 12 12 11 10 10 11 12 12 12 12 13 13 12 10 10 10
14 14 12 9 9 10 9 7 6 6 5 4 4 5 5 5 5 5 3 2 2 2 3 3 5 9 10 9 9 10 8 3 3 5 7 8 8 7 7 7 8 10 12 11 11 12 14 14 14 14 14 14 13 12 12 11 11 11 11 11 11 11 11 11 11 10 10 10 11 11 10 9 8 9 10 10 10 9 10 11 11 11 10 10 11
12 13 12 9 8 10 11 9 7 7 6 6 6 6 6 6 6 5 4 2 1 1 2 3 3 5 8 8 9 10 9 7 6 5 5 5 4 5 6 6 7 9 11 10 9 9 10 11 12 11 11 11 10 9 8 7 7 8 9 10 9 9 9 9 9 8 8 9 9 9 9 9 9 9 9 8 8 8 9 10 10 10 10 10 11
11 12 12 9 8 9 10 10 9 8 7 6 7 7 6 6 7 6 5 3 2 0 2 2 2 4 7 8 8 8 8 8 7 5 4 4 3 4 5 5 6 8 9 9 7 7 7 9 10 11 11 10 9 8 8 7 7 7 8 8 8 8 7 7 7 7 7 7 8 8 9 9 9 9 8 8 8 8 9 9 10 11 9 9 10
10 11 11 10 10 10 9 8 9 10 9 8 8 7 6 6 6 7 6 4 3 1 1 2 2 2 4 5 5 5 5 6 5 5 5 5 4 4 5 6 6 8 9 9 8 7 6 7 8 9 9 9 8 7 7 6 6 7 7 6 6 6 5 5 6 6 6 6 7 8 8 8 8 8 7 7 7 8 9 10 11 11 10 9 10
9 10 10 11 11 11 9 7 8 10 11 10 7 6 5 5 5 6 6 5 4 2 2 1 2 2 1 1 1 3 4 4 4 3 3 3 4 4 5 6 8 8 8 8 8 7 7 6 6 6 6 6 6 5 4 4 4 6 7 6 5 4 5 5 6 6 6 5 6 7 6 6 6 6 5 6 6 7 8 9 10 11 10 9 9
8 9 10 11 12 12 10 8 8 10 11 11 8 5 4 3 4 5 5 4 3 2 2 3 3 3 2 2 3 2 3 4 3 2 2 2 2 3 4 5 7 8 8 7 6 5 4 4 4 4 4 4 4 3 2 2 3 5 7 6 4 5 6 6 6 5 5 5 5 5 5 5 5 5 5 5 6 7 7 8 9 10 10 8 7
8 9 10 11 13 13 12 10 9 10 11 11 10 6 3 2 3 5 5 4 3 2 3 4 4 4 3 2 2 1 2 3 3 3 3 3 2 1 3 4 4 5 5 5 4 3 3 2 2 2 2 2 2 1 1 2 3 6 7 6 5 5 6 6 5 5 4 3 3 4 4 4 4 4 5 6 6 7 7 7 7 8 8 7 5
9 9 11 12 13 13 12 11 10 10 11 12 11 8 4 2 3 5 5 4 3 3 5 5 5 5 4 3 4 3 2 2 2 2 2 3 4 2 1 3 3 3 2 2 2 2 2 2 1 1 0 1 1 2 3 4 5 6 7 6 5 5 5 4 4 3 3 3 4 4 4 4 4 4 6 8 8 8 6 5 5 6 6 6 4
9 9 10 11 12 13 12 11 11 10 10 11 11 9 5 3 3 4 5 5 4 4 5 6 6 6 6 4 5 6 5 4 3 2 1 1 3 3 1 2 3 3 2 1 2 2 2 3 2 1 2 2 2 3 4 6 6 6 6 5 4 4 4 3 2 1 2 3 4 3 4 4 5 7 9 10 8 6 5 4 4 4 4 4 3
7 6 7 9 11 12 12 12 11 9 8 9 10 9 7 6 5 5 5 5 4 4 5 5 6 7 6 5 5 7 7 5 4 2 1 1 2 3 3 1 3 3 3 2 1 1 2 2 1 1 2 0 2 4 5 6 5 5 5 4 4 3 3 2 1 1 2 2 3 4 5 5 7 10 11 9 6 5 5 4 3 3 3 2 3
Wind_Direction
3 357 350 345 330 311 299 292 287 286 282 273 265 258 252 246 241 242 241 230 223 220 217 219 222 222 221 220 218 217 218 218 217 218 218 218 219 220 220 220 220 222 222 220 220 221 222 223 225 225 224 223 220 219 220 222 221 219 219 219 216 215 213 210 211 205 202 213 216 216 219 219 218 220 222 224 226 226 223 220 218 219 221 222 222
360 356 351 345 334 319 304 293 291 290 283 275 270 261 253 248 243 241 240 229 221 220 220 222 223 220 218 220 219 216 216 216 216 219 219 219 220 220 221 221 220 221 223 224 224 224 224 224 225 224 221 219 219 220 222 221 220 218 216 217 219 218 216 216 216 214 209 212 215 217 221 223 223 222 222 223 226 228 228 224 221 222 224 226 227
359 356 352 344 335 326 312 299 298 294 282 274 267 257 248 246 245 244 243 234 223 222 225 227 225 219 216 221 220 213 212 215 216 218 220 220 219 216 216 219 221 222 224 225 225 225 223 222 224 223 218 216 217 219 222 220 220 219 216 217 220 221 220 219 220 221 221 217 216 219 221 223 226 226 226 227 228 230 232 230 228 228 228 230 231
2 1 356 348 340 335 325 318 315 305 291 278 265 254 248 245 243 243 242 237 227 224 227 229 226 221 219 221 219 214 213 217 219 221 222 222 220 219 219 221 224 224 223 224 224 223 221 220 221 222 218 216 215 217 218 219 220 220 218 219 221 222 225 225 224 227 229 225 223 225 227 227 228 228 229 230 230 232 235 235 234 234 234 235 236
5 5 2 355 347 340 335 332 329 318 303 291 275 258 249 245 241 238 235 234 231 228 226 227 226 225 223 222 221 219 217 222 226 225 224 221 220 220 218 217 221 222 221 223 223 221 220 219 218 218 218 217 217 219 218 218 219 220 220 221 221 224 227 229 229 228 230 232 231 229 229 229 230 230 230 231 231 232 234 235 236 238 239 240 241
7 7 6 2 354 344 338 336 332 322 305 295 284 261 245 240 239 236 231 229 230 227 223 224 224 225 226 224 223 221 218 222 228 227 224 221 220 220 216 214 218 220 219 221 223 223 222 222 222 221 221 221 221 222 221 219 219 220 221 221 221 223 225 228 229 227 227 233 237 236 234 233 232 230 230 230 230 231 233 235 237 240 241 242 244
9 9 7 5 1 353 345 336 329 320 306 294 284 266 246 236 235 234 229 225 222 219 220 221 219 222 229 226 222 221 219 221 225 225 223 223 222 221 220 221 221 220 219 220 222 225 226 225 225 226 227 228 227 226 224 222 221 221 222 221 219 220 222 224 226 225 225 231 236 239 239 238 235 232 232 230 230 232 234 235 238 241 242 244 245
11 10 8 5 3 358 352 341 328 317 308 296 281 267 252 241 237 233 228 220 213 214 222 223 216 218 227 227 222 221 221 221 222 222 220 220 221 221 222 224 223 221 221 222 223 226 227 225 225 228 230 232 232 231 229 226 223 222 222 221 219 219 221 222 220 220 223 228 233 237 237 236 233 229 228 224 223 230 232 232 237 242 242 243 246
13 12 9 5 1 359 356 350 339 323 310 299 282 268 257 248 241 235 229 220 212 214 224 227 219 215 222 226 224 221 219 220 222 221 219 217 217 219 220 220 220 220 221 221 221 222 221 222 225 229 232 234 235 237 236 231 227 224 221 221 221 221 221 220 216 216 219 223 229 232 230 232 229 221 218 220 223 229 231 230 235 241 244 246 249
15 13 10 6 2 0 0 358 351 339 322 306 288 271 259 251 241 234 230 224 218 216 221 225 220 216 220 223 222 218 216 219 221 221 220 218 217 218 219 218 218 219 219 217 217 218 218 221 224 228 232 235 237 243 244 239 233 229 225 223 225 225 222 218 218 220 222 224 229 229 224 228 230 224 223 227 228 229 229 228 233 239 244 248 253
16 14 11 7 4 3 3 2 359 351 335 315 296 276 260 250 241 232 226 224 222 218 220 223 219 216 220 221 219 217 216 217 219 220 221 221 220 219 218 218 218 219 220 219 217 217 218 221 224 227 231 233 236 242 246 244 240 235 223 215 220 225 223 222 226 227 224 225 230 231 227 230 234 230 226 228 228 226 228 230 233 237 238 244 255
17 15 12 10 8 6 6 4 0 355 343 323 301 280 260 246 237 229 222 220 221 218 219 222 219 216 219 221 220 219 218 217 218 219 222 222 221 220 219 219 219 220 222 222 220 219 218 219 221 225 227 228 229 230 228 226 228 226 218 212 216 223 225 228 232 232 228 228 230 231 231 232 233 231 226 226 227 227 229 232 235 238 239 241 251
17 16 14 12 10 8 8 7 2 356 350 334 306 282 261 241 231 224 217 214 215 213 214 218 217 215 214 215 218 219 218 216 217 221 224 223 221 221 221 221 222 222 222 220 218 217 216 216 215 216 219 218 212 207 201 196 195 198 205 210 214 223 228 229 233 236 237 237 236 234 233 230 229 231 230 229 230 229 229 232 237 240 243 247 255
18 17 16 14 12 10 10 10 6 1 359 352 331 306 278 244 227 220 212 206 205 205 207 210 211 211 210 211 215 217 215 216 220 224 225 223 222 221 221 222 222 220 217 215 213 213 212 211 209 207 204 198 189 185 183 180 175 171 171 169 168 183 212 224 230 235 237 241 242 240 234 228 228 232 230 224 226 227 228 232 235 237 239 246 256
19 18 17 15 14 12 11 11 11 9 8 6 0 354 340 274 227 215 207 201 199 198 199 202 203 204 206 210 213 213 213 216 221 223 222 221 222 221 219 217 215 212 209 207 207 207 204 202 200 197 190 180 176 180 181 177 171 162 154 143 131 118 106 108 172 214 219 222 225 219 204 193 196 197 188 184 190 196 198 198 199 197 192 199 235
19 18 17 16 15 14 13 13 14 16 17 17 17 18 17 12 343 210 200 197 197 195 194 195 198 200 202 205 208 208 209 214 219 219 218 218 218 216 211 207 202 200 198 198 199 198 196 193 192 187 178 171 170 176 181 180 172 162 151 139 131 122 109 102 102 111 129 146 152 148 141 139 143 143 140 141 143 146 148 144 146 163 186 241 266
17 18 18 19 19 18 18 17 17 21 24 24 26 30 30 29 29 38 138 178 185 187 186 186 188 191 193 196 199 199 202 209 212 210 210 212 211 205 197 192 188 183 180 181 182 182 182 183 184 179 171 167 166 167 176 179 171 162 153 144 139 133 124 121 120 116 117 122 123 121 119 120 123 123 121 124 125 125 143 151 164 205 226 243 259
17 19 20 23 25 24 23 22 23 26 29 29 32 38 41 40 40 44 49 59 103 151 165 167 166 169 173 178 187 190 191 194 197 195 195 200 202 197 188 180 172 165 160 158 160 163 164 166 171 172 166 163 161 163 171 176 171 165 160 151 145 139 134 133 132 127 124 122 121 122 120 116 117 111 100 99 103 102 128 140 141 150 148 136 207
19 21 23 27 31 30 29 28 29 31 34 34 35 41 49 51 48 48 48 46 51 71 106 126 130 135 143 147 153 163 168 172 178 181 182 187 191 189 183 173 161 151 147 144 143 143 144 146 150 157 157 155 157 160 168 177 174 169 166 158 148 141 140 142 141 138 137 135 130 127 121 116 114 109 102 99 97 96 103 107 104 100 94 86 65
22 23 26 30 34 34 34 34 33 35 38 40 40 42 50 58 59 54 49 45 45 51 62 79 91 98 107 113 114 120 132 144 160 171 175 179 181 180 177 171 160 150 144 141 137 133 131 132 134 138 142 145 149 153 160 170 169 164 164 159 148 142 142 141 139 139 137 132 126 120 115 111 107 104 101 95 87 81 80 79 74 69 67 64 57
24 25 27 30 34 37 38 38 39 39 42 46 47 45 47 55 62 63 56 46 41 43 48 56 67 75 82 88 89 89 97 110 128 152 164 169 171 171 169 165 160 154 146 140 136 130 127 126 126 129 135 139 143 148 151 155 156 154 156 152 144 142 142 139 137 136 132 127 122 117 112 109 104 98 91 84 76 69 63 59 52 44 35 26 15
27 27 27 30 34 39 42 43 44 46 47 48 49 48 47 48 54 61 63 57 47 41 39 42 53 64 68 71 74 75 78 86 96 112 133 146 154 158 157 154 153 152 145 136 131 127 124 121 120 124 131 134 138 142 144 146 147 144 141 137 134 136 138 136 134 131 126 122 118 112 106 100 94 87 78 71 64 53 43 35 24 13 3 355 345
31 30 30 31 34 39 43 47 50 51 51 50 50 50 50 49 48 49 56 59 56 49 43 37 39 52 59 61 64 67 68 70 77 85 97 112 124 133 138 139 143 145 139 130 125 123 120 117 115 117 121 122 123 126 130 133 133 128 126 126 128 132 134 133 132 128 121 117 112 104 96 89 81 73 64 56 46 34 23 12 1 354 350 347 339
34 35 34 34 36 40 43 48 54 55 54 51 49 48 49 49 48 46 46 50 52 51 50 45 39 42 48 51 56 60 61 61 64 69 76 86 96 104 112 118 126 131 128 123 121 121 118 116 115 116 116 115 115 116 117 119 119 117 118 121 125 130 132 131 130 126 118 110 102 94 86 77 67 59 50 41 31 23 17 9 3 0 2 6 8
35 39 39 38 39 42 44 47 52 57 58 56 53 52 50 49 49 48 48 48 47 44 45 49 48 45 43 42 45 50 53 53 54 57 61 67 74 81 88 96 105 114 115 114 116 117 115 115 115 116 116 117 119 118 115 115 115 116 118 122 124 128 129 127 126 120 110 102 96 89 80 69 59 50 40 29 17 15 22 25 23 27 37 49 57
34 39 42 42 41 42 46 50 52 55 58 61 62 62 61 60 58 55 53 53 51 47 44 45 48 49 46 42 40 43 45 45 45 46 49 56 62 68 74 83 92 103 109 111 114 115 115 115 116 117 117 118 119 117 115 116 118 120 121 122 122 121 120 118 115 107 99 94 89 82 76 67 57 44 32 23 21 27 33 35 36 41 49 61 75
35 36 41 43 41 42 47 52 55 57 57 59 62 63 65 67 67 64 62 60 58 58 55 51 48 49 49 46 42 41 42 43 42 41 42 47 55 63 75 87 97 107 113 115 116 115 115 116 117 117 118 118 118 117 117 118 118 116 115 115 114 111 107 104 99 94 90 87 83 78 72 63 53 48 45 44 47 47 43 40 41 45 47 56 73
37 36 37 40 40 42 45 49 54 58 58 58 58 59 60 62 63 64 68 70 68 66 65 63 58 54 52 49 44 41 40 40 40 39 39 43 49 60 79 95 106 115 118 117 116 115 115 116 117 116 116 115 114 113 112 112 110 107 106 106 106 104 102 98 94 89 85 82 79 75 71 67 67 67 66 62 60 56 51 49 53 55 55 59 63
36 36 36 37 39 42 45 48 52 57 61 62 61 59 57 57 59 59 60 65 71 70 68 68 68 66 62 57 50 46 44 42 41 39 38 42 49 58 74 89 101 111 117 119 119 119 118 116 115 114 113 112 111 110 108 108 106 103 102 102 101 101 100 94 87 82 79 78 78 77 78 81 81 78 74 71 68 64 61 60 61 62 60 60 60
32 34 34 34 37 42 47 51 53 56 62 67 68 66 63 59 58 60 61 62 63 62 61 61 62 60 60 59 55 53 52 50 47 41 36 42 52 66 83 100 114 124 131 135 132 127 123 118 115 115 115 114 113 112 110 108 105 101 98 96 94 93 90 85 80 80 81 83 85 86 87 88 86 82 79 77 74 69 65 62 62 62 61 60 59
28 33 33 31 32 36 45 55 57 58 63 67 68 69 69 67 63 62 63 62 61 60 59 59 58 57 58 60 63 63 64 62 56 47 50 61 77 117 140 148 148 146 146 143 133 126 123 119 117 117 116 114 111 109 106 103 101 99 96 93 90 88 87 85 85 87 89 91 92 92 90 87 84 81 79 77 74 70 66 63 62 60 59 57 55
26 31 35 35 33 34 38 47 56 59 61 64 65 65 67 69 70 67 64 61 60 60 60 59 57 55 58 72 101 127 140 137 129 144 149 143 145 148 149 148 145 143 146 141 128 122 121 118 116 116 114 110 107 105 104 102 101 100 99 97 94 92 91 92 93 95 95 95 95 93 89 85 82 79 76 74 72 69 65 62 59 57 57 56 53
24 29 36 39 39 37 36 39 47 54 57 60 63 63 63 66 69 70 69 66 62 60 60 60 58 54 51 51 67 107 132 130 120 129 144 149 147 145 144 143 142 145 151 141 124 118 116 114 113 113 111 109 109 109 107 105 104 103 102 102 101 100 99 101 102 101 98 97 96 93 89 84 81 79 76 73 71 68 64 60 56 52 51 49 47
26 30 34 38 41 39 37 38 42 49 56 61 64 65 66 68 70 67 64 62 60 60 61 61 62 61 58 53 55 68 87 95 98 107 122 134 138 140 142 142 142 147 151 135 120 117 115 113 113 113 113 113 114 114 111 110 110 110 109 108 108 108 107 107 105 101 99 97 94 90 87 84 81 79 77 74 71 66 61 57 53 50 49 45 40
28 32 34 36 38 40 40 41 42 44 48 57 66 72 73 72 66 57 50 48 49 53 59 62 64 67 70 69 68 71 77 86 93 99 108 116 122 132 139 136 130 128 125 119 116 116 118 118 119 119 118 118 118 117 116 116 117 116 115 113 112 112 110 107 104 101 98 94 90 86 84 81 78 76 75 72 68 64 59 55 52 50 49 44 37
27 31 36 36 33 33 39 42 42 42 41 42 53 68 70 62 53 47 43 39 38 40 47 59 67 72 76 79 81 82 84 87 91 94 99 101 101 120 149 136 126 120 117 115 116 118 119 121 123 123 123 122 122 121 121 121 121 119 118 117 115 113 109 106 103 99 95 91 88 85 83 81 77 74 71 68 65 63 60 57 53 48 45 42 36
20 21 28 28 21 18 25 33 35 37 38 38 40 44 45 43 42 41 38 34 33 31 31 39 56 65 68 69 70 69 68 69 71 75 74 49 357 268 166 143 131 124 120 120 122 123 122 122 125 126 126 127 127 127 125 124 123 121 119 118 115 111 108 105 101 99 95 92 90 87 84 82 79 74 71 69 66 64 60 57 53 49 44 42 39
12 10 16 16 6 0 2 8 16 27 35 38 36 29 18 14 21 34 40 37 33 32 31 34 41 47 48 48 44 35 25 18 16 29 41 43 80 140 143 137 130 127 127 128 129 128 126 127 131 132 131 130 130 128 126 125 123 122 120 117 113 110 107 105 102 100 96 93 91 88 86 85 81 74 70 68 65 62 60 56 51 47 44 42 39
9 6 7 5 357 354 358 5 9 20 30 35 31 24 12 357 355 13 37 40 38 40 44 46 44 36 26 19 14 5 355 353 6 24 43 79 113 126 128 126 125 125 126 128 129 129 128 130 133 133 131 130 128 127 126 125 124 122 120 117 113 110 107 105 102 100 94 90 91 93 91 86 80 73 68 64 59 56 54 52 49 45 42 41 36
11 6 3 0 357 356 2 11 13 9 16 26 23 16 6 354 347 351 16 31 42 54 61 62 53 33 16 4 2 358 351 352 15 39 66 94 102 107 111 114 119 123 124 124 126 127 128 129 130 130 129 128 125 124 124 124 124 123 121 118 115 111 108 106 103 97 89 87 94 100 99 89 79 73 67 61 55 50 47 46 45 43 39 35 30
8 7 6 5 2 359 0 8 13 11 11 15 12 4 355 347 339 335 352 19 41 56 64 72 62 38 17 0 356 356 350 347 34 73 95 99 92 87 88 98 114 123 123 120 122 127 130 130 129 130 130 128 126 125 125 125 127 127 124 121 117 114 110 108 105 97 89 89 95 100 97 87 78 74 67 58 51 45 42 41 42 43 42 35 27
5 9 10 12 13 11 10 12 14 10 6 0 357 353 346 342 335 325 330 1 39 50 51 58 56 40 25 11 11 16 16 31 89 95 100 98 86 78 81 95 116 124 121 119 123 129 134 135 134 132 132 130 128 128 128 128 131 132 130 127 123 117 112 108 104 97 92 91 91 91 89 80 70 67 63 58 51 43 37 36 38 41 41 36 27
9 12 13 15 19 21 22 24 21 9 354 343 342 340 335 336 334 323 319 328 341 51 47 38 38 40 38 33 32 35 43 65 87 88 83 82 85 93 96 102 115 121 121 122 125 127 132 136 136 134 134 132 129 126 126 126 128 132 134 132 126 119 114 109 104 99 94 90 86 84 81 72 61 57 55 54 51 43 36 35 34 34 34 30 26
7 13 16 17 16 16 19 22 21 11 348 326 323 326 324 326 329 327 327 327 312 336 48 38 36 52 55 49 40 36 43 60 75 83 76 72 87 106 106 105 118 127 128 130 134 131 131 135 135 134 133 132 127 123 120 118 121 129 133 131 125 121 117 117 114 108 100 89 79 74 69 62 56 54 52 51 50 46 41 37 33 31 31 28 24
3 10 14 14 13 11 11 12 12 6 350 326 312 310 312 320 330 336 339 338 326 319 15 28 28 56 70 65 52 36 32 43 58 70 75 77 90 107 110 113 130 139 136 135 138 140 141 142 142 139 136 132 126 119 111 109 120 135 138 132 125 121 119 121 122 117 105 87 72 66 60 52 49 50 47 43 41 38 35 33 30 28 31 30 25
5 10 10 9 7 5 3 1 2 3 1 352 332 311 305 317 332 343 348 352 348 336 330 344 356 7 25 31 9 5 12 20 29 43 62 78 100 119 120 122 134 146 149 145 142 139 136 136 139 140 138 134 131 124 106 91 114 143 151 146 134 123 118 118 116 111 101 84 70 63 53 42 41 44 38 30 25 20 16 18 20 22 25 29 28
358 5 7 7 5 2 359 355 352 354 358 358 349 329 312 317 335 346 354 0 1 345 318 311 318 326 330 311 298 320 14 31 34 46 60 69 101 132 135 132 139 151 160 163 162 160 150 139 136 136 134 132 134 137 118 83 114 149 159 158 142 124 117 116 113 108 99 82 64 48 33 24 30 34 25 15 10 4 359 359 5 11 16 21 28
339 346 352 356 359 359 357 353 350 351 355 355 349 337 311 301 331 346 353 2 1 324 297 299 303 302 301 284 263 276 27 34 28 42 53 37 21 135 155 147 143 152 164 170 176 184 182 159 136 132 132 134 136 157 188 181 163 161 163 159 143 125 118 114 111 105 92 66 35 15 7 9 19 23 14 3 354 349 345 343 345 354 2 6 17
324 329 336 344 349 350 348 346 346 350 358 359 353 341 314 287 325 338 340 349 352 319 296 296 298 293 282 258 249 261 299 351 356 26 55 26 1 350 198 185 169 156 156 159 169 186 197 185 163 132 122 249 253 228 196 183 172 164 160 154 141 131 127 121 113 99 67 31 14 6 5 5 4 357 351 346 338 332 329 326 324 334 347 357 12
316 319 329 340 345 345 343 340 338 342 352 357 353 344 320 286 298 320 325 331 340 328 312 305 299 293 285 270 268 280 287 292 312 338 358 340 351 1 340 228 214 196 175 144 132 136 145 152 147 71 348 297 240 190 171 169 165 160 158 157 154 154 154 148 133 84 18 10 9 9 2 354 348 345 343 340 334 328 325 320 312 316 332 351 36
322 324 332 345 353 355 352 346 338 335 340 348 351 346 325 291 280 292 310 319 322 324 327 324 313 305 299 292 292 301 303 300 307 326 306 258 327 358 358 294 235 226 225 211 166 138 138 151 154 2 352 336 169 161 157 154 151 150 154 160 167 174 181 191 227 287 326 343 348 343 338 338 343 346 344 342 340 341 339 333 322 326 342 26 88